Regional Weather Roundup
Issued by NWS Raleigh/Durham, NC

Current Version | Previous Version | Graphics & Text | Print | Product List | Glossary On
Versions: 1 2 3 4 5 6 7 8 9 10 11 12 13 14 15 16 17 18 19 20 21 22 23 24 25 26 27 28 29 30 31 32 33 34 35 36 37 38 39 40 41 42 43 44 45 46 47 48 49 50
000
ASUS42 KRAH 171310
RWRRAH
NORTH CAROLINA WEATHER ROUNDUP
NATIONAL WEATHER SERVICE RALEIGH NC
800 AM EST WED JAN 17 2018

NOTE: "FAIR" INDICATES FEW OR NO CLOUDS BELOW 12,000 FEET WITH NO
SIGNIFICANT WEATHER AND/OR OBSTRUCTIONS TO VISIBILITY.

NCZ001-053-055-056-065-067-171400-
WESTERN NORTH CAROLINA

CITY           SKY/WX    TMP DP  RH WIND       PRES   REMARKS
ASHEVILLE      LGT SNOW  17  13  84 N17G24    30.21F FOG     WCI   1
JEFFERSON      LGT SNOW  17  14  86 N5        30.15F WCI  10
MORGANTON      LGT SNOW  29  28  95 N5        30.26F WCI  24
HICKORY        LGT SNOW  28  28 100 N3        30.23S VSB 3/4
RUTHERFORDTON  LGT SNOW  28  28  98 N7        30.24F WCI  21
MOUNT AIRY     LGT SNOW  25  20  82 NW7       30.29S WCI  17
BOONE          LGT SNOW  16  12  83 W9G16     30.16F WCI   5
$$

NCZ021-022-025-041-071-084-088-171400-
CENTRAL NORTH CAROLINA

CITY           SKY/WX    TMP DP  RH WIND       PRES   REMARKS
CHARLOTTE      LGT SNOW  33  32  96 N12       30.24S VSB 1   WCI  24
GREENSBORO     SNOW      27  26  96 N12G20    30.26R VSB 1/2 WCI  17
WINSTON-SALEM  SNOW      28  26  92 N9        30.27S VSB 1/2 WCI  19
RALEIGH-DURHAM FLURRIES  34  31  88 N7        30.27R WCI  28
FORT BRAGG     CLOUDY    36  27  69 CALM      30.23S
FAYETTEVILLE   CLOUDY    35  29  78 E5        30.23S WCI  31
BURLINGTON     SNOW      32  31  96 N8        30.26S VSB 1/2 WCI  25
LAURINBURG     CLOUDY    39  32  76 CALM      30.24S
$$

NCZ011-015-027-028-043-044-047-080-103-171400-
NORTHEASTERN NORTH CAROLINA

CITY           SKY/WX    TMP DP  RH WIND       PRES   REMARKS
ROCKY MT-WILSO CLOUDY    32  30  92 CALM      30.29R
GREENVILLE     FAIR      32  30  93 CALM      30.28R
ELIZABETH CITY FAIR      33  33 100 N7        30.29R WCI  27
MANTEO         MOCLDY    31  31 100 CALM      30.28R
CAPE HATTERAS  CLOUDY    39  37  92 NE3       30.27R
$$

NCZ078-087-090-091-093-098-101-171400-
SOUTHEASTERN NORTH CAROLINA

CITY           SKY/WX    TMP DP  RH WIND       PRES   REMARKS
LUMBERTON      CLOUDY    35  32  88 E7        30.22F WCI  29
GOLDSBORO      FAIR      30  26  85 W3        30.25R
KINSTON        FAIR      30  28  93 CALM      30.27S
KENANSVILLE    FAIR      27  27 100 CALM      30.26R FOG
NEW BERN       FAIR      28  28 100 CALM      30.29R
CHERRY POINT   NOT AVBL
BEAUFORT       CLOUDY    38  35  89 CALM      30.27R
JACKSONVILLE   FAIR      32  32 100 CALM      30.26S
WILMINGTON     FAIR      32  31  96 E3        30.25F
$$




USA.gov is the U.S. government's official web portal to all federal, state and local government web resources and services.